Stündliche Wetter Kyzylaut

Heute, 14 Mai, Freitag

Zeit Temperatur Niederschläge Wind Luftdruck Luftfeuchtigkeit
00:00 +16°C° 0 mm 3 m/S 723 mmHg 30%
01:00 +16°C° 0 mm 2 m/S 722 mmHg 33%
02:00 +15°C° 0 mm 2 m/S 722 mmHg 35%
03:00 +15°C° 0 mm 2 m/S 722 mmHg 36%
04:00 +14°C° 0 mm 2 m/S 722 mmHg 37%
05:00 +14°C° 0 mm 2 m/S 722 mmHg 38%
06:00 +15°C° 0 mm 4 m/S 723 mmHg 39%
07:00 +16°C° 0 mm 5 m/S 723 mmHg 40%
08:00 +19°C° 0 mm 6 m/S 724 mmHg 42%
09:00 +21°C° 0 mm 7 m/S 724 mmHg 38%
10:00 +22°C° 0 mm 8 m/S 724 mmHg 35%
11:00 +24°C° 0 mm 8 m/S 724 mmHg 32%
12:00 +24°C° 0 mm 9 m/S 724 mmHg 31%
13:00 +26°C° 0 mm 9 m/S 724 mmHg 31%
14:00 +26°C° 0 mm 9 m/S 724 mmHg 30%
15:00 +26°C° 0 mm 9 m/S 724 mmHg 30%
16:00 +24°C° 0 mm 9 m/S 723 mmHg 30%
17:00 +24°C° 0 mm 9 m/S 723 mmHg 29%
18:00 +23°C° 0 mm 8 m/S 723 mmHg 31%
19:00 +21°C° 0 mm 6 m/S 723 mmHg 34%
20:00 +19°C° 0 mm 5 m/S 723 mmHg 36%
21:00 +19°C° 0 mm 6 m/S 723 mmHg 38%
22:00 +17°C° 0 mm 8 m/S 723 mmHg 40%
23:00 +16°C° 0 mm 9 m/S 723 mmHg 42%

Morgen, 15 Mai, Samstag

Zeit Temperatur Niederschläge Wind Luftdruck Luftfeuchtigkeit
00:00 +16°C° 0 mm 9 m/S 723 mmHg 44%
01:00 +15°C° 0 mm 8 m/S 723 mmHg 46%
02:00 +13°C° 0 mm 8 m/S 722 mmHg 48%
03:00 +14°C° 0 mm 7 m/S 722 mmHg 50%
04:00 +12°C° 0 mm 7 m/S 722 mmHg 51%
05:00 +13°C° 0 mm 6 m/S 723 mmHg 53%
06:00 +14°C° 0 mm 7 m/S 723 mmHg 51%
07:00 +15°C° 0 mm 8 m/S 723 mmHg 48%
08:00 +17°C° 0 mm 9 m/S 723 mmHg 46%
09:00 +18°C° 0 mm 10 m/S 723 mmHg 39%
10:00 +21°C° 0 mm 11 m/S 723 mmHg 32%
11:00 +22°C° 0 mm 11 m/S 723 mmHg 25%
12:00 +23°C° 0 mm 11 m/S 723 mmHg 24%
13:00 +24°C° 0 mm 11 m/S 723 mmHg 23%
14:00 +26°C° 0 mm 11 m/S 723 mmHg 21%
15:00 +24°C° 0 mm 11 m/S 723 mmHg 22%
16:00 +24°C° 0 mm 11 m/S 723 mmHg 23%
17:00 +24°C° 0 mm 10 m/S 722 mmHg 24%
18:00 +23°C° 0 mm 10 m/S 722 mmHg 26%
19:00 +21°C° 0 mm 9 m/S 723 mmHg 27%
20:00 +20°C° 0 mm 8 m/S 723 mmHg 29%
21:00 +18°C° 0 mm 8 m/S 723 mmHg 31%
22:00 +17°C° 0 mm 7 m/S 723 mmHg 33%
23:00 +16°C° 0 mm 6 m/S 723 mmHg 35%

übermorgen, 16 Mai, Sonntag

Zeit Temperatur Niederschläge Wind Luftdruck Luftfeuchtigkeit
00:00 +15°C° 0 mm 6 m/S 722 mmHg 37%
01:00 +14°C° 0 mm 5 m/S 722 mmHg 40%
02:00 +13°C° 0 mm 4 m/S 722 mmHg 42%
03:00 +13°C° 0 mm 4 m/S 722 mmHg 44%
04:00 +12°C° 0 mm 4 m/S 722 mmHg 46%
05:00 +11°C° 0 mm 3 m/S 722 mmHg 48%
06:00 +13°C° 0 mm 4 m/S 723 mmHg 44%
07:00 +15°C° 0 mm 6 m/S 723 mmHg 40%
08:00 +17°C° 0 mm 7 m/S 724 mmHg 36%
09:00 +20°C° 0 mm 8 m/S 723 mmHg 32%
10:00 +22°C° 0 mm 9 m/S 723 mmHg 28%
11:00 +23°C° 0 mm 9 m/S 723 mmHg 24%
12:00 +24°C° 0 mm 9 m/S 723 mmHg 22%
13:00 +26°C° 0 mm 9 m/S 723 mmHg 21%
14:00 +27°C° 0 mm 9 m/S 722 mmHg 19%
15:00 +27°C° 0 mm 9 m/S 722 mmHg 19%
16:00 +27°C° 0 mm 9 m/S 722 mmHg 19%
17:00 +27°C° 0 mm 9 m/S 722 mmHg 18%
18:00 +24°C° 0 mm 8 m/S 721 mmHg 21%
19:00 +22°C° 0 mm 6 m/S 721 mmHg 24%
20:00 +21°C° 0 mm 5 m/S 721 mmHg 27%
21:00 +20°C° 0 mm 5 m/S 721 mmHg 29%
22:00 +19°C° 0 mm 5 m/S 721 mmHg 31%
23:00 +18°C° 0 mm 4 m/S 721 mmHg 33%

17 Mai, Montag

Zeit Temperatur Niederschläge Wind Luftdruck Luftfeuchtigkeit
00:00 +17°C° 0 mm 3 m/S 721 mmHg 37%
01:00 +16°C° 0 mm 3 m/S 721 mmHg 40%
02:00 +15°C° 0 mm 2 m/S 720 mmHg 43%
03:00 +14°C° 0 mm 2 m/S 721 mmHg 45%
04:00 +14°C° 0 mm 2 m/S 721 mmHg 47%
05:00 +13°C° 0 mm 2 m/S 721 mmHg 49%
06:00 +14°C° 0 mm 3 m/S 721 mmHg 46%
07:00 +17°C° 0 mm 3 m/S 722 mmHg 43%
08:00 +19°C° 0 mm 4 m/S 722 mmHg 40%
09:00 +21°C° 0 mm 5 m/S 722 mmHg 35%
10:00 +23°C° 0 mm 5 m/S 722 mmHg 30%
11:00 +27°C° 0 mm 6 m/S 722 mmHg 26%
12:00 +28°C° 0 mm 6 m/S 722 mmHg 23%
13:00 +29°C° 0 mm 6 m/S 721 mmHg 20%
14:00 +30°C° 0 mm 6 m/S 721 mmHg 17%
15:00 +30°C° 0 mm 6 m/S 721 mmHg 16%
16:00 +30°C° 0 mm 6 m/S 720 mmHg 16%
17:00 +32°C° 0 mm 6 m/S 720 mmHg 16%
18:00 +28°C° 0 mm 5 m/S 720 mmHg 20%
19:00 +26°C° 0 mm 5 m/S 720 mmHg 23%
20:00 +23°C° 0 mm 4 m/S 719 mmHg 27%
21:00 +22°C° 0 mm 3 m/S 719 mmHg 30%
22:00 +20°C° 0 mm 3 m/S 719 mmHg 32%
23:00 +19°C° 0 mm 3 m/S 719 mmHg 35%

18 Mai, Dienstag

Zeit Temperatur Niederschläge Wind Luftdruck Luftfeuchtigkeit
00:00 +18°C° 0 mm 2 m/S 719 mmHg 39%
01:00 +18°C° 0 mm 2 m/S 718 mmHg 42%
02:00 +18°C° 0 mm 1 m/S 718 mmHg 46%
03:00 +16°C° 0 mm 1 m/S 718 mmHg 47%
04:00 +16°C° 0 mm 1 m/S 718 mmHg 47%
05:00 +15°C° 0 mm 1 m/S 718 mmHg 48%
06:00 +18°C° 0 mm 2 m/S 718 mmHg 44%
07:00 +20°C° 0 mm 2 m/S 719 mmHg 39%
08:00 +23°C° 0 mm 2 m/S 719 mmHg 34%
09:00 +25°C° 0 mm 3 m/S 719 mmHg 30%
10:00 +27°C° 0 mm 4 m/S 719 mmHg 26%
11:00 +29°C° 0 mm 5 m/S 719 mmHg 22%
12:00 +30°C° 0 mm 4 m/S 718 mmHg 20%
13:00 +31°C° 0 mm 3 m/S 718 mmHg 19%
14:00 +33°C° 0 mm 3 m/S 718 mmHg 17%
15:00 +33°C° 0 mm 3 m/S 717 mmHg 16%
16:00 +33°C° 0 mm 3 m/S 717 mmHg 15%
17:00 +34°C° 0 mm 3 m/S 717 mmHg 14%
18:00 +30°C° 0 mm 3 m/S 717 mmHg 17%
19:00 +28°C° 0 mm 3 m/S 717 mmHg 19%
20:00 +26°C° 0 mm 3 m/S 716 mmHg 21%
21:00 +24°C° 0 mm 2 m/S 716 mmHg 23%
22:00 +23°C° 0 mm 1 m/S 716 mmHg 24%
23:00 +22°C° 0 mm 1 m/S 716 mmHg 26%

19 Mai, Mittwoch

Zeit Temperatur Niederschläge Wind Luftdruck Luftfeuchtigkeit
00:00 +22°C° 0 mm 1 m/S 716 mmHg 27%
01:00 +21°C° 0 mm 1 m/S 716 mmHg 28%
02:00 +21°C° 0 mm 1 m/S 716 mmHg 28%
03:00 +20°C° 0 mm 1 m/S 716 mmHg 30%
04:00 +20°C° 0 mm 1 m/S 716 mmHg 31%
05:00 +19°C° 0 mm 1 m/S 716 mmHg 32%
06:00 +22°C° 0 mm 1 m/S 716 mmHg 29%
07:00 +25°C° 0 mm 1 m/S 717 mmHg 25%
08:00 +27°C° 0 mm 1 m/S 717 mmHg 22%
09:00 +29°C° 0 mm 1 m/S 718 mmHg 20%
10:00 +30°C° 0 mm 2 m/S 718 mmHg 18%
11:00 +32°C° 0 mm 2 m/S 718 mmHg 17%
12:00 +33°C° 0 mm 3 m/S 718 mmHg 16%
13:00 +34°C° 0 mm 3 m/S 717 mmHg 15%
14:00 +35°C° 0 mm 3 m/S 717 mmHg 14%
15:00 +34°C° 0 mm 3 m/S 717 mmHg 14%
16:00 +34°C° 0 mm 3 m/S 717 mmHg 14%
17:00 +34°C° 0 mm 3 m/S 717 mmHg 14%
18:00 +31°C° 0 mm 3 m/S 717 mmHg 20%
19:00 +28°C° 0 mm 3 m/S 717 mmHg 25%
20:00 +26°C° 0 mm 4 m/S 717 mmHg 31%
21:00 +25°C° 0 mm 3 m/S 717 mmHg 33%
22:00 +24°C° 0 mm 3 m/S 717 mmHg 35%
23:00 +23°C° 0 mm 2 m/S 717 mmHg 37%
Mehr zeigen

Wir brauchen deine Erlaubnis

Meteoprog und unser Service Anbieter werden persönliche Daten aufbewahren, so wie Cookies, Geräte Bezeichnung oder ähnliche Technologien von deinem Gerät und Prozess, so wie Persönliche Daten Inhalte und Werbungen, genauso wie social Media und den Verkehr zu analysieren.

  • Aufbewahrung und/oder Zugang zu deiner Geräte Informationen.

    Cookies, Geräte Bezeichnung oder andere Informationen, können aufbewahrt oder Zugang zu deinem Gerät erhalten, für den Grund, der oben angegeben wird.

  • Personalisierte Werbung und Inhalte, Messungen, Einblick in das Publikum und Produkt Entwicklung.

    Werbungen und Inhalte können personalisiert werden, basierend auf ein Profil. Mehr Daten können besser personalisierte Werbungen und Inhalte hinzufügen. Werbung und Inhalte können gezeigt und gemessen werden. Einblicke über das Publikum, welche die Werbung gesehen haben und den Inhalt, können abgeleitet werden. So wie Daten können genutzt werden, um es zu verbessern oder die Benutzer Erfahrung zu verbessern das System und die Software.

Wenn du “Ich stimme zu” klickst, erlaubst du uns, die Cookies zu benutzen die Geräte Bezeichnung, den Web oder ähnliche Technologien zu benutzen. Deine Settings, können in deinem Gerät bei deinem Browser geändert werden.

Für den bestimmten Zweck, berechtigten Interessen beruhen darauf, mehr als auf den Inhalt. Du kannst mehr darüber in unseren Privaten und Cookie Politik lesen.